[[{"header":{"parameterUnit":"m.s-1","parameterCategory":1,"la1":30.2991,"la2":30.254,"lo1":-89.0895,"lo2":-89.0444,"dy":0.0017,"dx":0.0017,"nx":28,"ny":28,"refTime":"2025-04-24T09:00:00:Z","depth":0,"parameterNumber":2,"parameterNumberName":"U-component_of_WINDS"},"data":[0,0,0,0,0,0,0,0,0,0,0,0,0,0,0,0,0,0,0,0,0,0,0,0,0,0,0,0,0,0,0,0,0,0,0,0,0,0,0,0,0,0,0,0,0,0,0,0,0,0,0,0,0,0,0,0,0,0,-2.2,-2.2,0,-2.2035,-2.2036,-2.2036,-2.1999,-2.1998,-2.1996,-2.1995,-2.203,-2.2033,-2.2035,0,0,0,0,0,0,0,0,0,0,0,0,0,-2.19,-2.1902,-2.2,-2.2,-2.2001,-2.2035,-2.2036,-2.2036,-2.1999,-2.1998,-2.1996,-2.1994,-2.203,-2.2032,-2.2035,0,0,0,0,0,0,0,0,0,0,0,0,0,-2.194,-2.1903,-2.2,-2.1987,-2.1986,-2.2035,-2.2036,-2.2036,-2.2,-2.1998,-2.1995,-2.1993,-2.2029,-2.2032,-2.2035,-2.2099,0,0,-2.2046,-2.2047,0,0,0,0,0,0,0,0,-2.1938,-2.1944,-2.1988,-2.1988,-2.1987,-2.2011,-2.2013,-2.2058,-2.2,-2.1994,-2.1995,-2.1992,-2.2025,-2.2029,-2.204,-2.2101,-2.2103,-2.2046,-2.2048,-2.205,-2.2051,0,0,0,0,0,0,0,-2.1935,-2.1942,-2.2014,-2.1989,-2.1988,-2.1979,-2.1982,-2.2022,-2.2022,-2.1995,-2.1992,-2.1997,-2.2025,-2.2037,-2.2041,-2.2103,-2.2046,-2.2049,-2.2051,-2.2052,-2.2218,-2.222,0,0,0,0,0,0,-2.1934,-2.194,-2.2013,-2.2015,-2.1957,-2.1982,-2.1986,-2.2005,-2.2021,-2.2021,-2.1999,-2.1995,-2.2032,-2.2037,-2.2042,-2.2118,-2.205,-2.2053,-2.2055,-2.2216,-2.2219,-2.2221,0,0,0,0,0,0,-2.1932,-2.1941,-2.2011,-2.1977,-2.1985,-2.1986,-2.2008,-2.2007,-2.2019,-2.2024,-2.2024,-2.2011,-2.2031,-2.2037,-2.2085,-2.2118,-2.2054,-2.2057,-2.2213,-2.2217,-2.222,-2.227,0,0,0,0,0,0,-2.1929,-2.194,-2.1965,-2.1978,-2.1987,-2.2055,-2.201,-2.2009,-2.2025,-2.2021,-2.2036,-2.2036,-2.203,-2.2081,-2.2089,-2.2122,-2.206,-2.221,-2.2215,-2.2219,-2.2265,-2.2275,-2.2283,0,0,0,0,0,-2.1926,-2.1977,-2.1966,-2.1975,-2.2018,-2.2057,-2.2062,-2.2053,-2.2028,-2.2053,-2.2056,-2.2036,-2.2114,-2.2086,-2.2095,-2.2129,-2.2208,-2.2213,-2.2218,-2.2261,-2.2273,-2.2283,0,0,0,0,0,0,-2.1968,-2.1979,-2.1966,-2.2024,-2.204,-2.205,-2.2081,-2.2066,-2.2089,-2.2084,-2.2072,-2.2076,-2.2127,-2.2133,-2.2102,-2.2192,-2.2157,-2.2164,-2.2186,-2.2197,-2.2206,-2.2203,-2.2063,0,0,0,0,0,-2.1984,-2.2014,-2.2022,-2.2072,-2.2081,-2.208,-2.2096,-2.2088,-2.2104,-2.211,-2.2117,-2.2133,-2.2161,-2.2179,-2.2206,-2.2266,-2.2269,-2.2295,-2.2303,-2.2311,-2.2317,-2.2349,-2.2361,-2.2239,-2.2239,-2.2238,0,0,-2.2017,-2.2027,-2.2047,-2.2081,-2.2092,-2.2124,-2.2085,-2.2121,-2.2144,-2.2116,-2.2162,-2.2167,-2.2184,-2.2239,-2.2263,-2.2246,-2.2351,-2.2317,-2.2323,-2.2325,-2.2356,-2.2367,-2.2378,-2.2242,-2.2242,-2.2241,0,0,-2.2093,-2.2104,-2.2146,-2.2159,-2.2177,-2.2176,-2.2186,-2.2199,-2.2202,-2.2248,-2.2227,-2.2255,-2.2304,-2.2316,-2.2329,-2.2412,-2.2394,-2.2421,-2.2466,-2.2498,-2.2507,-2.2516,-2.2545,-2.2555,-2.2427,-2.2427,-2.2427,0,-2.2132,-2.2179,-2.217,-2.2207,-2.2223,-2.2199,-2.2242,-2.2254,-2.228,-2.2291,-2.2271,-2.2331,-2.2341,-2.2399,-2.2419,-2.243,-2.2441,-2.2418,-2.2507,-2.2515,-2.2523,-2.255,-2.2561,-2.243,-2.243,-2.2429,-2.2429,0,-2.2226,-2.2259,-2.2291,-2.2317,-2.2336,-2.2376,-2.2373,-2.2393,-2.2384,-2.2385,-2.2432,-2.2444,-2.2471,-2.2485,-2.2476,-2.2541,-2.2529,-2.2508,-2.2472,-2.2538,-2.2563,-2.2574,-2.2435,-2.2433,-2.2433,-2.2432,0,0,-2.2329,-2.2349,-2.2361,-2.2372,-2.2391,-2.2416,-2.2455,-2.2482,-2.25,-2.2519,-2.2551,-2.2593,-2.2574,-2.2588,-2.2581,-2.2609,-2.2673,-2.2584,-2.2585,-2.26,-2.2745,-2.276,-2.2773,-2.2662,-2.2664,-2.2665,-2.2743,0,-2.2405,-2.2473,-2.2466,-2.253,-2.256,-2.2539,-2.2572,-2.2587,-2.259,-2.2616,-2.2618,-2.2648,-2.2621,-2.2629,-2.2656,-2.266,-2.2702,-2.2654,-2.2691,-2.2692,-2.2687,-2.2786,-2.2802,-2.2875,-2.2753,-2.2755,-2.2756,0,-2.2503,-2.2526,-2.2593,-2.2607,-2.2619,-2.265,-2.2674,-2.27,-2.2716,-2.2716,-2.2733,-2.2721,-2.276,-2.2724,-2.2777,-2.2744,-2.2759,-2.2763,-2.2766,-2.2768,-2.2728,-2.279,-2.2898,-2.2909,-2.2772,-2.2771,-2.277,0,-2.2571,-2.2618,-2.2664,-2.2675,-2.2692,-2.2714,-2.2722,-2.2736,-2.2753,-2.2775,-2.2786,-2.2812,-2.2826,-2.2847,-2.2842,-2.2816,-2.2896,-2.286,-2.2897,-2.2897,-2.2914,-2.2913,-2.3025,-2.2925,-2.2925,-2.2924,-2.2924,0,-2.2657,-2.2699,-2.2695,-2.2723,-2.2769,-2.2761,-2.2807,-2.2813,-2.2826,-2.2854,-2.2838,-2.2865,-2.2857,-2.2885,-2.2881,-2.2926,-2.2932,-2.2933,-2.2931,-2.2934,-2.2934,-2.2943,-2.2938,-2.2927,-2.2927,-2.2926,-2.2926,0,-2.274,-2.2739,-2.2788,-2.2801,-2.2805,-2.2838,-2.2849,-2.2875,-2.2877,-2.2914,-2.2922,-2.2924,-2.2955,-2.2952,-2.2987,-2.2985,-2.304,-2.3033,-2.3034,-2.3033,-2.3069,-2.3066,-2.3191,-2.3207,-2.3097,-2.3098,-2.3099,0,-2.2794,-2.2826,-2.2842,-2.286,-2.287,-2.29,-2.2917,-2.2911,-2.2929,-2.2951,-2.2975,-2.3005,-2.3028,-2.3079,-2.3083,-2.311,-2.3103,-2.3145,-2.3106,-2.3108,-2.3103,-2.3101,-2.3104,-2.3152,-2.3153,-2.3154,-2.3155,0,-2.2891,-2.2889,-2.2915,-2.2941,-2.2962,-2.2983,-2.3001,-2.3017,-2.3012,-2.3034,-2.3066,-2.3084,-2.312,-2.3149,-2.3175,-2.3183,-2.3168,-2.3167,-2.3177,-2.318,-2.3179,-2.3179,-2.3054,-2.3164,-2.3163,-2.3162,-2.3162,-2.3162,-2.2961,-2.2988,-2.3004,-2.3033,-2.3046,-2.3064,-2.309,-2.3094,-2.3121,-2.3149,-2.3144,-2.318,-2.3195,-2.3228,-2.3239,-2.3267,-2.3252,-2.3266,-2.327,-2.3273,-2.3277,-2.3175,-2.3271,-2.3271,-2.3271,-2.3271,-2.3271,0,-2.3056,-2.3065,-2.3093,-2.3119,-2.3142,-2.3127,-2.3146,-2.3167,-2.3198,-2.3214,-2.3238,-2.3274,-2.3303,-2.331,-2.3337,-2.3358,-2.3352,-2.3366,-2.3364,-2.3366,-2.3289,-2.3278,-2.337,-2.337,-2.337,-2.337,-2.337,-2.337,-2.3109,-2.3154,-2.3154,-2.3205,-2.3214,-2.3249,-2.3261,-2.3277,-2.329,-2.3332,-2.3355,-2.336,-2.3372,-2.3401,-2.3426,-2.3428,-2.3438,-2.3455,-2.3453,-2.3381,-2.3371,-2.3362,-2.3351,-2.3457,-2.3457,-2.3527,-2.3528,-2.3528]},{"header":{"parameterUnit":"m.s-1","parameterCategory":1,"la1":30.2991,"la2":30.254,"lo1":-89.0895,"lo2":-89.0444,"dy":0.0017,"dx":0.0017,"nx":28,"ny":28,"refTime":"2025-04-24T09:00:00:Z","depth":0,"parameterNumber":3,"parameterNumberName":"V-component_of_WINDS"},"data":[0,0,0,0,0,0,0,0,0,0,0,0,0,0,0,0,0,0,0,0,0,0,0,0,0,0,0,0,0,0,0,0,0,0,0,0,0,0,0,0,0,0,0,0,0,0,0,0,0,0,0,0,0,0,0,0,0,0,2.3359,2.3359,0,2.338,2.3381,2.3381,2.3354,2.3353,2.3352,2.3351,2.3371,2.3372,2.3373,0,0,0,0,0,0,0,0,0,0,0,0,0,2.3291,2.3293,2.3359,2.3359,2.3359,2.338,2.3381,2.3381,2.3354,2.3353,2.3352,2.3351,2.337,2.3372,2.3373,0,0,0,0,0,0,0,0,0,0,0,0,0,2.3317,2.3293,2.3359,2.3349,2.3348,2.338,2.3381,2.3381,2.3355,2.3353,2.3352,2.335,2.337,2.3372,2.3374,2.3416,0,0,2.338,2.3381,0,0,0,0,0,0,0,0,2.3316,2.332,2.335,2.3349,2.3349,2.3363,2.3364,2.3393,2.3355,2.3352,2.3351,2.335,2.3369,2.3371,2.3378,2.3417,2.3418,2.338,2.3382,2.3383,2.3383,0,0,0,0,0,0,0,2.3314,2.3319,2.3367,2.335,2.335,2.3342,2.3344,2.3369,2.3368,2.3352,2.335,2.3353,2.3368,2.3376,2.3379,2.3418,2.338,2.3382,2.3384,2.3384,2.3493,2.3494,0,0,0,0,0,0,2.3314,2.3317,2.3366,2.3368,2.3328,2.3344,2.3347,2.336,2.3368,2.3368,2.3355,2.3352,2.3373,2.3376,2.3379,2.3429,2.3383,2.3385,2.3386,2.3491,2.3493,2.3495,0,0,0,0,0,0,2.3313,2.3319,2.3366,2.3342,2.3348,2.3347,2.3362,2.3361,2.3369,2.337,2.3369,2.3363,2.3372,2.3376,2.3407,2.3429,2.3386,2.3387,2.3489,2.3492,2.3494,2.3529,0,0,0,0,0,0,2.3311,2.3318,2.3335,2.3343,2.3349,2.3394,2.3364,2.3363,2.3373,2.337,2.3378,2.3377,2.3372,2.3404,2.3409,2.3431,2.3389,2.3487,2.349,2.3493,2.3526,2.3533,2.3538,0,0,0,0,0,2.3308,2.3343,2.3336,2.3342,2.337,2.3396,2.3399,2.3392,2.3375,2.3391,2.3392,2.3377,2.3427,2.3408,2.3413,2.3436,2.3486,2.3489,2.3493,2.3524,2.3532,2.3538,0,0,0,0,0,0,2.3336,2.3344,2.3336,2.3375,2.3385,2.3391,2.3411,2.3401,2.3415,2.3412,2.3402,2.3404,2.3437,2.344,2.3419,2.3478,2.3453,2.3458,2.3475,2.3482,2.3488,2.3486,2.3391,0,0,0,0,0,2.3347,2.3369,2.3374,2.3407,2.3413,2.3412,2.3422,2.3417,2.3426,2.343,2.3433,2.3442,2.346,2.3471,2.3487,2.3527,2.3528,2.3546,2.3552,2.3557,2.3561,2.3581,2.3589,2.3507,2.3507,2.3506,0,0,2.3369,2.3376,2.339,2.3413,2.342,2.3442,2.3415,2.3439,2.3454,2.3433,2.3463,2.3466,2.3475,2.3511,2.3527,2.3514,2.3584,2.3561,2.3565,2.3566,2.3586,2.3594,2.3601,2.3509,2.3509,2.3508,0,0,2.3421,2.3429,2.3457,2.3466,2.3478,2.3476,2.3484,2.3492,2.3493,2.3523,2.3508,2.3526,2.3556,2.3564,2.3572,2.3627,2.3614,2.3633,2.3663,2.3684,2.369,2.3696,2.3715,2.3722,2.3637,2.3637,2.3637,0,2.3446,2.3479,2.3473,2.3498,2.3508,2.3492,2.3521,2.3529,2.3545,2.3552,2.3538,2.3577,2.3582,2.3619,2.3633,2.364,2.3647,2.3631,2.369,2.3696,2.3701,2.3719,2.3726,2.3639,2.3639,2.3639,2.3638,0,2.3509,2.3532,2.3554,2.3571,2.3584,2.3611,2.3608,2.3622,2.3616,2.3616,2.3647,2.3653,2.367,2.3679,2.3672,2.3715,2.3707,2.3692,2.3667,2.3711,2.3728,2.3735,2.3642,2.3641,2.3641,2.364,0,0,2.3577,2.3592,2.36,2.3608,2.3621,2.3638,2.3664,2.3682,2.3693,2.3705,2.3726,2.3753,2.374,2.3748,2.3743,2.3761,2.3804,2.3744,2.3744,2.3754,2.3851,2.3861,2.3869,2.3796,2.3797,2.3798,2.3849,0,2.3628,2.3674,2.367,2.3713,2.3734,2.3719,2.3742,2.3751,2.3753,2.377,2.3771,2.379,2.3771,2.3776,2.3794,2.3795,2.3823,2.3791,2.3814,2.3815,2.381,2.3878,2.3888,2.3937,2.3856,2.3857,2.3858,0,2.3693,2.3708,2.3754,2.3764,2.3772,2.3793,2.3809,2.3826,2.3837,2.3836,2.3847,2.3839,2.3864,2.3839,2.3873,2.3852,2.3861,2.3863,2.3865,2.3866,2.3838,2.3879,2.3952,2.3959,2.3868,2.3867,2.3867,0,2.3736,2.3769,2.3801,2.3808,2.382,2.3835,2.3841,2.385,2.3862,2.3876,2.3883,2.3899,2.3908,2.3921,2.3917,2.3899,2.3951,2.3927,2.3951,2.3951,2.3961,2.396,2.4035,2.3969,2.3969,2.3969,2.3969,0,2.3793,2.3821,2.3821,2.384,2.3871,2.3866,2.3897,2.39,2.3909,2.3928,2.3917,2.3935,2.3929,2.3946,2.3943,2.3971,2.3976,2.3975,2.3974,2.3976,2.3975,2.398,2.3976,2.3971,2.397,2.397,2.397,0,2.3846,2.3847,2.388,2.3891,2.3894,2.3916,2.3924,2.3942,2.3943,2.3967,2.3972,2.3973,2.3993,2.3991,2.4013,2.4011,2.4046,2.4041,2.4043,2.4041,2.4065,2.4062,2.4144,2.4155,2.4083,2.4084,2.4084,0,2.3881,2.3903,2.3916,2.3929,2.3936,2.3956,2.3968,2.3964,2.3977,2.3991,2.4007,2.4027,2.4041,2.4074,2.4076,2.4093,2.4087,2.4115,2.409,2.4091,2.4087,2.4085,2.4087,2.412,2.412,2.4121,2.4122,0,2.3944,2.3943,2.3962,2.3981,2.3995,2.401,2.4022,2.4033,2.4031,2.4046,2.4067,2.4078,2.4102,2.412,2.4137,2.4141,2.4131,2.413,2.4136,2.4138,2.4137,2.4137,2.4055,2.4128,2.4127,2.4127,2.4126,2.4126,2.3988,2.4007,2.4019,2.404,2.405,2.4062,2.408,2.4084,2.4101,2.4121,2.4117,2.4141,2.4151,2.4172,2.4178,2.4196,2.4186,2.4195,2.4197,2.4199,2.4202,2.4136,2.4199,2.4199,2.4199,2.4198,2.4198,0,2.4049,2.4057,2.4076,2.4095,2.4112,2.4103,2.4116,2.413,2.4151,2.4163,2.4178,2.4202,2.4221,2.4225,2.4243,2.4256,2.4251,2.426,2.4259,2.426,2.421,2.4203,2.4264,2.4264,2.4264,2.4264,2.4264,2.4264,2.4083,2.4114,2.4115,2.4151,2.4158,2.4182,2.419,2.4202,2.4211,2.4238,2.4254,2.4258,2.4266,2.4284,2.43,2.4301,2.4307,2.4318,2.4317,2.427,2.4263,2.4257,2.425,2.432,2.432,2.4365,2.4365,2.4366]}]]